• In Hungary
  • List of Countries
  • For 7 days
  • Water Temperature
  • Satellite Maps
  • Weather Map
  • News
  • Weather Widgets
  • user-avatar
    Login

    Hourly Weather Zolotaya Gora

    Today, 23 June, Saturday

    Time Temperature Precipitation Wind Pressure Humidity
    00:00 +20°C° 0 mm 1 mps 747 mmHg 78%
    01:00 +20°C° 0 mm 1 mps 747 mmHg 79%
    02:00 +19°C° 0 mm 1 mps 747 mmHg 80%
    03:00 +19°C° 0 mm 1 mps 747 mmHg 82%
    04:00 +20°C° 0 mm 1 mps 747 mmHg 79%
    05:00 +21°C° 0 mm 1 mps 747 mmHg 76%
    06:00 +22°C° 0 mm 1 mps 747 mmHg 73%
    07:00 +24°C° 0 mm 1 mps 747 mmHg 67%
    08:00 +25°C° 0 mm 1 mps 747 mmHg 62%
    09:00 +27°C° 0 mm 1 mps 747 mmHg 56%
    10:00 +28°C° 0 mm 1 mps 747 mmHg 53%
    11:00 +29°C° 0 mm 2 mps 747 mmHg 49%
    12:00 +29°C° 0 mm 2 mps 747 mmHg 45%
    13:00 +30°C° 0 mm 2 mps 747 mmHg 44%
    14:00 +30°C° 0 mm 2 mps 747 mmHg 43%
    15:00 +30°C° 0 mm 2 mps 747 mmHg 41%
    16:00 +30°C° 0 mm 2 mps 747 mmHg 45%
    17:00 +30°C° 0 mm 2 mps 746 mmHg 48%
    18:00 +29°C° 0 mm 2 mps 746 mmHg 51%
    19:00 +27°C° 0 mm 2 mps 746 mmHg 54%
    20:00 +25°C° 0 mm 2 mps 746 mmHg 56%
    21:00 +23°C° 0 mm 2 mps 746 mmHg 59%
    22:00 +23°C° 0 mm 2 mps 747 mmHg 60%
    23:00 +21°C° 0 mm 2 mps 747 mmHg 61%

    Tomorrow, 24 June, Sunday

    Time Temperature Precipitation Wind Pressure Humidity
    00:00 +20°C° 0 mm 2 mps 747 mmHg 63%
    01:00 +20°C° 0 mm 2 mps 747 mmHg 63%
    02:00 +19°C° 0 mm 2 mps 747 mmHg 64%
    03:00 +19°C° 0 mm 2 mps 747 mmHg 64%
    04:00 +20°C° 0 mm 2 mps 747 mmHg 65%
    05:00 +20°C° 0 mm 2 mps 747 mmHg 65%
    06:00 +21°C° 0 mm 2 mps 747 mmHg 66%
    07:00 +22°C° 0 mm 3 mps 747 mmHg 61%
    08:00 +25°C° 0 mm 3 mps 747 mmHg 56%
    09:00 +27°C° 0 mm 4 mps 747 mmHg 51%
    10:00 +28°C° 0 mm 4 mps 747 mmHg 48%
    11:00 +29°C° 0 mm 4 mps 747 mmHg 44%
    12:00 +29°C° 0 mm 5 mps 747 mmHg 41%
    13:00 +30°C° 0 mm 4 mps 747 mmHg 40%
    14:00 +30°C° 0 mm 4 mps 747 mmHg 38%
    15:00 +32°C° 0 mm 4 mps 747 mmHg 37%
    16:00 +30°C° 0 mm 4 mps 747 mmHg 40%
    17:00 +30°C° 0 mm 3 mps 747 mmHg 44%
    18:00 +29°C° 0 mm 3 mps 747 mmHg 47%
    19:00 +28°C° 0 mm 3 mps 747 mmHg 47%
    20:00 +26°C° 0 mm 3 mps 747 mmHg 47%
    21:00 +24°C° 0 mm 3 mps 747 mmHg 48%
    22:00 +24°C° 0 mm 3 mps 747 mmHg 48%
    23:00 +22°C° 0 mm 3 mps 747 mmHg 48%

    Day after tomorrow, 25 June, Monday

    Time Temperature Precipitation Wind Pressure Humidity
    00:00 +22°C° 0 mm 3 mps 747 mmHg 47%
    01:00 +21°C° 0 mm 3 mps 747 mmHg 49%
    02:00 +21°C° 0 mm 3 mps 748 mmHg 50%
    03:00 +20°C° 0 mm 3 mps 748 mmHg 52%
    04:00 +21°C° 0 mm 2 mps 748 mmHg 55%
    05:00 +21°C° 0 mm 2 mps 748 mmHg 58%
    06:00 +23°C° 0 mm 2 mps 748 mmHg 61%
    07:00 +24°C° 0 mm 2 mps 748 mmHg 57%
    08:00 +26°C° 0 mm 2 mps 748 mmHg 53%
    09:00 +28°C° 0 mm 2 mps 749 mmHg 49%
    10:00 +29°C° 0 mm 2 mps 749 mmHg 45%
    11:00 +31°C° 0 mm 3 mps 749 mmHg 42%
    12:00 +33°C° 0 mm 3 mps 749 mmHg 38%
    13:00 +32°C° 0 mm 2 mps 749 mmHg 37%
    14:00 +34°C° 0 mm 2 mps 749 mmHg 35%
    15:00 +34°C° 0 mm 2 mps 749 mmHg 33%
    16:00 +34°C° 0 mm 2 mps 749 mmHg 37%
    17:00 +32°C° 0 mm 2 mps 749 mmHg 42%
    18:00 +32°C° 0 mm 2 mps 749 mmHg 46%
    19:00 +30°C° 0 mm 2 mps 749 mmHg 54%
    20:00 +27°C° 0 mm 2 mps 749 mmHg 63%
    21:00 +25°C° 0 mm 3 mps 749 mmHg 71%
    22:00 +24°C° 0 mm 2 mps 749 mmHg 73%
    23:00 +24°C° 0 mm 2 mps 749 mmHg 75%

    26 June, Tuesday

    Time Temperature Precipitation Wind Pressure Humidity
    00:00 +23°C° 0 mm 2 mps 749 mmHg 77%
    01:00 +23°C° 0 mm 2 mps 749 mmHg 76%
    02:00 +21°C° 0 mm 2 mps 749 mmHg 75%
    03:00 +21°C° 0 mm 2 mps 750 mmHg 73%
    04:00 +23°C° 0 mm 2 mps 750 mmHg 72%
    05:00 +23°C° 0 mm 2 mps 750 mmHg 71%
    06:00 +24°C° 0 mm 2 mps 750 mmHg 70%
    07:00 +25°C° 0 mm 2 mps 750 mmHg 66%
    08:00 +27°C° 0 mm 2 mps 750 mmHg 62%
    09:00 +28°C° 0 mm 2 mps 750 mmHg 57%
    10:00 +29°C° 0 mm 3 mps 750 mmHg 53%
    11:00 +31°C° 0 mm 3 mps 750 mmHg 49%
    12:00 +33°C° 0 mm 3 mps 750 mmHg 45%
    13:00 +34°C° 0 mm 2 mps 750 mmHg 41%
    14:00 +35°C° 0 mm 2 mps 750 mmHg 38%
    15:00 +35°C° 0 mm 2 mps 750 mmHg 34%
    16:00 +35°C° 0 mm 2 mps 750 mmHg 38%
    17:00 +34°C° 0 mm 2 mps 750 mmHg 42%
    18:00 +34°C° 0 mm 2 mps 749 mmHg 46%
    19:00 +31°C° 0 mm 2 mps 750 mmHg 50%
    20:00 +29°C° 0 mm 3 mps 750 mmHg 54%
    21:00 +27°C° 0 mm 3 mps 750 mmHg 58%
    22:00 +26°C° 0 mm 3 mps 750 mmHg 61%
    23:00 +26°C° 0 mm 3 mps 750 mmHg 65%

    27 June, Wednesday

    Time Temperature Precipitation Wind Pressure Humidity
    00:00 +25°C° 0 mm 3 mps 750 mmHg 68%
    01:00 +24°C° 0 mm 3 mps 750 mmHg 71%
    02:00 +24°C° 0 mm 3 mps 750 mmHg 74%
    03:00 +22°C° 0 mm 3 mps 750 mmHg 77%
    04:00 +22°C° 0.2 mm 3 mps 750 mmHg 79%
    05:00 +24°C° 0.2 mm 3 mps 750 mmHg 80%
    06:00 +23°C° 0.2 mm 4 mps 750 mmHg 81%
    07:00 +26°C° 0 mm 4 mps 750 mmHg 76%
    08:00 +27°C° 0 mm 4 mps 751 mmHg 71%
    09:00 +29°C° 0 mm 4 mps 751 mmHg 66%
    10:00 +30°C° 0 mm 4 mps 751 mmHg 61%
    11:00 +32°C° 0 mm 4 mps 750 mmHg 55%
    12:00 +33°C° 0 mm 4 mps 750 mmHg 50%
    13:00 +33°C° 0 mm 4 mps 750 mmHg 49%
    14:00 +33°C° 0 mm 4 mps 750 mmHg 48%
    15:00 +33°C° 0 mm 4 mps 750 mmHg 47%
    16:00 +33°C° 0 mm 3 mps 750 mmHg 50%
    17:00 +31°C° 0 mm 3 mps 750 mmHg 53%
    18:00 +31°C° 0 mm 3 mps 750 mmHg 55%
    19:00 +29°C° 0.1 mm 3 mps 750 mmHg 60%
    20:00 +27°C° 0.1 mm 3 mps 750 mmHg 64%
    21:00 +26°C° 0.1 mm 3 mps 750 mmHg 68%
    22:00 +25°C° 0.4 mm 3 mps 750 mmHg 72%
    23:00 +24°C° 0.4 mm 3 mps 750 mmHg 76%

    28 June, Thursday

    Time Temperature Precipitation Wind Pressure Humidity
    00:00 +22°C° 0.4 mm 3 mps 750 mmHg 79%
    01:00 +22°C° 0.1 mm 3 mps 750 mmHg 81%
    02:00 +21°C° 0.1 mm 3 mps 750 mmHg 83%
    03:00 +21°C° 0.1 mm 3 mps 750 mmHg 85%
    04:00 +22°C° 0 mm 3 mps 750 mmHg 84%
    05:00 +23°C° 0 mm 2 mps 750 mmHg 82%
    06:00 +24°C° 0 mm 2 mps 750 mmHg 81%
    07:00 +25°C° 0 mm 3 mps 750 mmHg 75%
    08:00 +27°C° 0 mm 3 mps 751 mmHg 69%
    09:00 +28°C° 0 mm 3 mps 751 mmHg 63%
    10:00 +29°C° 0 mm 3 mps 750 mmHg 58%
    11:00 +30°C° 0 mm 3 mps 750 mmHg 53%
    12:00 +31°C° 0 mm 3 mps 750 mmHg 48%
    13:00 +31°C° 0 mm 3 mps 750 mmHg 48%
    14:00 +33°C° 0 mm 3 mps 750 mmHg 47%
    15:00 +33°C° 0 mm 3 mps 750 mmHg 46%
    16:00 +31°C° 0.1 mm 3 mps 750 mmHg 51%
    17:00 +30°C° 0.1 mm 4 mps 750 mmHg 56%
    18:00 +29°C° 0.1 mm 4 mps 750 mmHg 61%
    19:00 +28°C° 0 mm 4 mps 750 mmHg 66%
    20:00 +26°C° 0 mm 3 mps 750 mmHg 71%
    21:00 +24°C° 0 mm 3 mps 750 mmHg 76%
    22:00 +24°C° 0 mm 3 mps 750 mmHg 78%
    23:00 +22°C° 0 mm 3 mps 750 mmHg 79%
    Show more